Regional Weather Roundup
Issued by NWS

Home | Current Version | Previous Version | Text Only | Print | Product List | Glossary Off
Versions: 1 2 3 4 5 6 7 8 9 10 11 12 13 14 15 16 17 18 19 20 21 22 23 24 25 26 27 28 29 30 31 32 33 34 35 36 37 38 39 40 41 42 43 44 45 46 47 48 49 50

171
ASUS43 KDMX 211306
RWRIA

WEATHER ROUNDUP FOR IOWA
NATIONAL WEATHER SERVICE DES MOINES IA
800 AM CDT SAT OCT 21 2017

NOTE: "FAIR" INDICATES FEW OR NO CLOUDS BELOW 12,000 FEET WITH NO
SIGNIFICANT WEATHER AND/OR OBSTRUCTIONS TO VISIBILITY.

* - THESE STATIONS ARE NOT NWS STATIONS...THUS NOT UNDER NWS
QUALITY CONTROL.  THEY ALSO DO NOT REPORT WEATHER SUCH
AS PRECIPITATION OR FOG.

IAZ001>003-012>014-020>022-031>034-043>046-211400-
   NORTHWEST IOWA

CITY           SKY/WX    TMP DP  RH WIND       PRES   REMARKS
CHEROKEE *     CLOUDY    65  62  91 S18G29    29.60S
DENISON *      CLOUDY    64  61  88 S20       29.66S
LE MARS *      CLOUDY    66  61  82 S17G23    29.57R
ORANGE CITY *  CLOUDY    66  63  88 S10G18    29.59R
SHELDON *      CLOUDY    64  61  88 S12       29.59R
SIOUX CITY     CLOUDY    66  62  87 S13G21    29.56R
SPENCER        CLOUDY    63  60  90 SE16G32   29.64R
STORM LAKE *   CLOUDY    63  61  94 S18G26    29.64R
$$

IAZ055>058-069>071-079>083-090>094-211400-
   SOUTHWEST IOWA

CITY           SKY/WX    TMP DP  RH WIND       PRES   REMARKS
ATLANTIC *     CLOUDY    66  61  82 S17G26    29.69S
AUDUBON *      CLOUDY    64  61  88 S14G22    29.71R
CLARINDA *       N/A     66  61  82 S20G26    29.73F
COUNCIL BLFS * CLOUDY    66  66 100 S17G26    29.66R
CRESTON *      CLOUDY    63  57  82 S20G26    29.76F
HARLAN  *      CLOUDY    64  63  94 S17G24    29.70S
LAMONI         LGT RAIN  63  57  81 S17G26    29.80F
RED OAK *      CLOUDY    66  61  82 S22       29.69S
SHENANDOAH *   CLOUDY    66  61  82 S18G26    29.69F
$$

IAZ047>049-059>061-072>074-084-211400-
   CENTRAL IOWA

CITY           SKY/WX    TMP DP  RH WIND       PRES   REMARKS
AMES           CLOUDY    64  59  83 S16G29    29.76S
ANKENY *       CLOUDY    64  57  77 S20G30    29.78S
BOONE *        CLOUDY    63  59  88 S14G25    29.74S
CHARITON *     CLOUDY    64  57  77 S21G28    29.81S
DES MOINES     CLOUDY    65  58  78 S20G31    29.78R
GRINNELL*      CLOUDY    61  55  79 S14       29.85R
KNOXVILLE *    CLOUDY    64  55  72 S20G31    29.80S
MARSHALLTOWN   CLOUDY    64  57  78 S15       29.80R
NEWTON *       CLOUDY    64  57  77 S17G25    29.82R
PELLA *        CLOUDY    65  56  71 S20G26    29.84S
PERRY *        CLOUDY    64  60  87 S18G29    29.73S
$$

IAZ004>006-015-016-023>025-035-036-211400-
   NORTH CENTRAL IOWA

CITY           SKY/WX    TMP DP  RH WIND       PRES   REMARKS
ALGONA *       CLOUDY    61  61 100 SE18G30   29.69F
CLARION *      CLOUDY    61  61 100 S13       29.77R
ESTHERVILLE    CLOUDY    60  60 100 S23G31    29.65S
FORT DODGE *   CLOUDY    62  59  90 SE9       29.73F
MASON CITY     LGT RAIN  58  57  97 S16       29.79R
FOREST CITY *  LGT RAIN  59  59 100 S16       29.74S
WEBSTER CITY * CLOUDY    63  59  88 S13       29.73R
IOWA FALLS *   CLOUDY    64  58  80 S15G23    29.79S
$$

IAZ007>011-017>019-026>030-037>042-050>054-066-211400-
   NORTHEAST IOWA

CITY           SKY/WX    TMP DP  RH WIND       PRES   REMARKS
CEDAR RAPIDS   CLEAR     61  53  75 S13       29.88R
CHARLES CITY * CLOUDY    61  57  88 S16G23    29.81R
CLINTON *      CLOUDY    63  52  67 S13       29.96F
DECORAH *      CLOUDY    61  54  77 S14G22    29.82F
DUBUQUE        PTCLDY    61  50  67 S16G28    29.91F
MONTICELLO *   CLEAR     61  52  72 SE13      29.89F
OELWEIN *      CLOUDY    63  55  77 S18G25    29.86R
WATERLOO       CLOUDY    62  53  72 S17G26    29.82R
$$

IAZ064-065-067-068-078-211400-
   EAST CENTRAL IOWA

CITY           SKY/WX    TMP DP  RH WIND       PRES   REMARKS
DAVENPORT      MOCLDY    63  51  65 S15G24    29.97S
IOWA CITY      CLEAR     62  52  69 S13       29.91S
MUSCATINE *    CLEAR     61  52  72 S9        29.93S
QUAD CITIES    CLOUDY    64  51  62 S15G21    29.95S
$$

IAZ062-063-075>077-085>089-095>099-211400-
   SOUTHEAST IOWA

CITY           SKY/WX    TMP DP  RH WIND       PRES   REMARKS
BURLINGTON     PTCLDY    62  53  72 S13       29.94F
FAIRFIELD *    CLEAR     61  52  72 S17G25    29.89S
FORT MADISON * CLEAR     61  54  77 S9        29.95S
KEOKUK *       CLEAR     64  54  68 S10G18    29.94S
OSKALOOSA *      N/A     59  54  84 S15       29.86S
OTTUMWA        CLEAR     61  54  77 S17       29.87R
WASHINGTON *   CLEAR     63  54  72 S15G25    29.91S
$$

ABBREVIATIONS USED IN REMARKS
   TC - TEMPERATURES IN CELSIUS
  WCI - WIND CHILL INDEX
   HX - HEAT INDEX
  VSB - VISIBILITY
$$





USA.gov is the U.S. government's official web portal to all federal, state and local government web resources and services.